Waarnemingen

Advertentie
Mijn weer
Quimper, Frankrijk (7201): temperatuur & dauwpunt: 13.08.2018 17:00:00 - 19.08.2018 17:00:00 (CEST)Quimper, Frankrijk (7201): temperatuur 5cm: 13.08.2018 17:00:00 - 19.08.2018 17:00:00 (CEST)Quimper, Frankrijk (7201): temperatuur -20cm: 13.08.2018 17:00:00 - 19.08.2018 17:00:00 (CEST)Quimper, Frankrijk (7201): windsnelheid & windstoten: 13.08.2018 17:00:00 - 19.08.2018 17:00:00 (CEST)Quimper, Frankrijk (7201): windrichting: 13.08.2018 17:00:00 - 19.08.2018 17:00:00 (CEST)Quimper, Frankrijk (7201): luchtdruk: 13.08.2018 17:00:00 - 19.08.2018 17:00:00 (CEST)Quimper, Frankrijk (7201): zicht: 13.08.2018 17:00:00 - 19.08.2018 17:00:00 (CEST)Quimper, Frankrijk (7201): Zonneschijnduur: 13.08.2018 17:00:00 - 19.08.2018 17:00:00 (CEST)Quimper, Frankrijk (7201): neerslag: 13.08.2018 17:00:00 - 19.08.2018 17:00:00 (CEST)
Datum & Tijd tt [°C] td [°C] tt 5cm [°C] tt -20cm [°C] ff [km/u] ff [kn] fx [km/u] fx [kn] dd ppp [hPa] vv [km] sd [min] rr [mm]
19.08.2018 17:00:00 20,8 17,4 20,2 18,3 12 7 23 13 W 1024,4 20 6 0,0
19.08.2018 16:00:00 21,5 17,7 23,2 18,2 13 7 20 11 W 1024,7 38 5 0,0
19.08.2018 15:00:00 22,5 18,1 23,6 18,0 12 6 25 13 WZW 1024,5 48 21 0,0
19.08.2018 14:00:00 20,8 17,0 23,0 17,9 13 7 25 14 WNW 1024,7 52 40 0,0
19.08.2018 13:00:00 21,5 16,2 23,7 17,9 14 7 27 14 W 1024,6 20 57 0,0
19.08.2018 12:00:00 20,5 16,1 21,1 17,8 18 10 25 14 W 1024,8 52 46 0,0
19.08.2018 11:00:00 19,1 16,7 18,9 17,9 16 9 28 15 W 1024,5 20 53 0,0
19.08.2018 10:00:00 16,4 16,2 15,0 18,0 5 3 10 5 W 1024,5 11 50 0,0
19.08.2018 09:00:00 13,2 13,0 10,3 18,1 0 0 5 3 N 1024,6 0,6 42 0,0
19.08.2018 08:00:00 10,8 10,5 7,6 18,3 0 0 3 1 N 1024,6 0,1 5 0,0
19.08.2018 07:00:00 10,5 10,2 7,6 18,4 0 0 3 2 N 1024,3 0,3 0 0,0
19.08.2018 06:00:00 11,2 10,9 8,5 18,6 3 2 5 3 W 1024,3 0,2 0 0,0
19.08.2018 05:00:00 11,8 11,3 8,6 18,7 0 0 6 4 N 1024,7 0,1 0 0,0
19.08.2018 04:00:00 12,4 11,9 9,9 18,8 5 3 9 5 WNW 1025,0 5 0 0,2
19.08.2018 03:00:00 11,9 11,4 9,6 19,0 5 3 6 3 NW 1024,9 6 0 0,0
19.08.2018 02:00:00 11,8 11,2 9,2 19,1 0 0 5 3 N 1025,0 14 0 0,0
19.08.2018 01:00:00 12,8 12,0 9,5 19,1 4 2 5 3 WNW 1025,3 13 0 0,0
19.08.2018 00:00:00 13,0 12,1 11,4 19,2 3 2 6 3 W 1025,5 13 0 0,0
18.08.2018 23:00:00 13,6 12,2 12,0 19,2 4 2 9 5 W 1025,5 18 0 0,0
18.08.2018 22:00:00 14,5 12,2 13,5 19,1 8 4 13 7 W 1025,4 29 0 0,0
18.08.2018 21:00:00 16,9 12,8 16,3 19,0 9 5 19 11 W 1024,9 44 60 0,0
18.08.2018 20:00:00 18,7 13,3 20,2 18,8 13 7 21 11 W 1024,7 53 60 0,0
18.08.2018 19:00:00 19,7 13,4 21,5 18,6 12 7 20 11 W 1024,5 48 58 0,0
18.08.2018 18:00:00 20,4 13,6 22,2 18,4 12 6 23 12 W 1024,6 20 55 0,0
18.08.2018 17:00:00 20,4 14,1 22,5 18,2 11 6 23 12 WZW 1024,8 47 46 0,0
18.08.2018 16:00:00 20,1 13,1 22,4 18,0 11 6 26 14 W 1025,2 20 36 0,0
18.08.2018 15:00:00 20,5 13,7 21,7 17,9 13 7 21 12 W 1025,6 20 38 0,0
18.08.2018 14:00:00 19,4 13,1 21,0 17,8 12 7 21 11 W 1025,8 19 29 0,0
18.08.2018 13:00:00 19,8 13,0 20,0 17,7 11 6 22 12 WZW 1025,9 60 36 0,0
18.08.2018 12:00:00 18,3 12,7 19,6 17,7 13 7 22 12 WZW 1026,0 49 19 0,0
18.08.2018 11:00:00 17,2 14,5 17,5 17,8 9 5 14 8 W 1026,0 57 1 0,0
18.08.2018 10:00:00 14,8 14,5 14,3 17,9 0 0 4 2 N 1026,0 19 2 0,0
18.08.2018 09:00:00 13,3 13,0 10,2 18,0 0 0 3 2 N 1026,0 10 57 0,0
18.08.2018 08:00:00 10,6 10,3 8,1 18,1 0 0 5 3 N 1025,6 2,8 21 0,0
18.08.2018 07:00:00 10,1 9,6 7,1 18,2 3 1 4 2 WZW 1025,3 20 0 0,0
18.08.2018 06:00:00 10,6 10,0 7,8 18,4 0 0 6 3 N 1025,3 8 0 0,0
18.08.2018 05:00:00 10,6 9,7 7,9 18,5 5 3 9 5 WNW 1025,3 11 0 0,0
18.08.2018 04:00:00 10,6 9,4 8,6 18,6 5 3 6 4 WNW 1025,4 20 0 0,0
18.08.2018 03:00:00 12,0 10,2 10,3 18,7 6 3 8 4 WNW 1025,6 59 0 0,0
18.08.2018 02:00:00 12,8 11,4 10,9 18,8 6 4 10 5 NW 1025,9 60 0 0,0
18.08.2018 01:00:00 12,2 10,8 10,8 18,9 6 4 11 6 WNW 1026,1 53 0 0,0
18.08.2018 00:00:00 13,0 11,2 11,9 18,9 7 4 16 8 WNW 1026,1 47 0 0,0
17.08.2018 23:00:00 13,6 11,5 12,5 18,9 9 5 12 7 WNW 1026,1 42 0 0,0
17.08.2018 22:00:00 14,3 11,4 12,8 18,9 4 2 15 8 W 1025,6 60 2 0,0
17.08.2018 21:00:00 16,4 11,3 15,7 18,8 10 5 24 13 WNW 1025,3 60 60 0,0
17.08.2018 20:00:00 17,9 10,8 19,5 18,7 17 9 32 18 NW 1024,5 60 60 0,0
17.08.2018 19:00:00 19,0 10,3 21,3 18,7 20 11 32 17 NW 1024,4 60 60 0,0
17.08.2018 18:00:00 19,9 10,6 19,6 18,6 22 12 32 18 WNW 1024,2 60 40 0,0
17.08.2018 17:00:00 18,9 10,7 20,4 18,5 20 11 29 16 NW 1024,6 57 3 0,0
17.08.2018 16:00:00 19,6 12,4 20,7 18,4 16 9 29 16 NNW 1024,9 19 8 0,0
17.08.2018 15:00:00 19,3 10,6 19,5 18,3 18 10 27 15 NW 1025,1 57 23 0,0
17.08.2018 14:00:00 18,4 10,7 19,5 18,2 18 10 29 16 NNW 1024,9 57 15 0,0
17.08.2018 13:00:00 18,6 11,4 19,5 18,2 21 11 32 17 NW 1024,9 20 13 0,0
17.08.2018 12:00:00 18,1 12,1 18,5 18,2 14 7 25 13 N 1024,9 54 18 0,0
17.08.2018 11:00:00 17,2 11,9 19,0 18,3 9 5 18 10 N 1024,7 59 44 0,0
17.08.2018 10:00:00 16,1 14,5 15,9 18,4 6 3 10 5 WNW 1024,1 50 10 0,0
17.08.2018 09:00:00 13,6 13,1 11,9 18,5 0 0 5 3 N 1023,5 20 53 0,0
17.08.2018 08:00:00 11,0 10,4 9,4 18,6 2 1 11 6 ZZW 1023,1 18 22 0,0
17.08.2018 07:00:00 10,4 9,8 9,2 18,8 8 5 12 6 WNW 1022,7 40 0 0,2
17.08.2018 06:00:00 11,5 10,9 9,6 18,9 10 6 13 7 WNW 1022,2 34 0 0,0
17.08.2018 05:00:00 11,0 10,4 9,7 19,0 11 6 16 8 NW 1021,9 20 0 0,0
17.08.2018 04:00:00 10,4 9,9 9,4 19,1 10 5 13 7 WNW 1022,0 38 0 0,0
17.08.2018 03:00:00 10,4 9,6 9,3 19,2 10 5 12 7 WNW 1021,7 20 0 0,0
17.08.2018 02:00:00 10,9 9,5 10,0 19,4 9 5 13 7 WNW 1021,6 49 0 0,0
17.08.2018 01:00:00 12,3 10,9 10,9 19,5 11 6 14 8 NW 1021,6 58 0 0,0
17.08.2018 00:00:00 12,4 10,5 11,5 19,6 12 6 17 9 NW 1021,2 60 0 0,0
16.08.2018 23:00:00 12,9 10,4 11,9 19,6 11 6 15 8 NW 1020,6 60 0 0,0
16.08.2018 22:00:00 13,7 10,3 12,5 19,7 10 5 23 12 NW 1019,9 60 0 0,0
16.08.2018 21:00:00 15,9 10,6 15,5 19,6 18 10 29 16 NW 1019,2 60 51 0,0
16.08.2018 20:00:00 17,8 10,7 19,5 19,6 19 10 35 19 NW 1018,6 60 60 0,0
16.08.2018 19:00:00 18,3 11,1 18,9 19,6 23 13 37 20 NNW 1018,4 60 49 0,0
16.08.2018 18:00:00 18,7 10,8 18,3 19,6 25 13 35 19 NNW 1018,0 19 33 0,0
16.08.2018 17:00:00 17,3 12,0 17,8 19,6 16 9 32 18 NNW 1018,1 20 0 0,0
16.08.2018 16:00:00 17,5 14,0 18,2 19,6 16 8 35 19 NNW 1017,8 19 0 0,0
16.08.2018 15:00:00 16,9 14,4 16,5 19,6 16 8 32 18 NNW 1017,9 20 0 0,0
16.08.2018 14:00:00 17,5 15,1 17,6 19,6 24 13 37 20 NNW 1017,4 26 0 0,0
16.08.2018 13:00:00 18,0 17,0 17,7 19,5 14 8 24 13 WNW 1017,2 19 0 0,4
16.08.2018 12:00:00 17,8 17,0 17,6 19,5 14 7 27 15 W 1017,3 4,4 0 0,0
16.08.2018 11:00:00 17,6 16,8 17,2 19,6 18 10 26 14 W 1017,3 8 0 0,0
16.08.2018 10:00:00 17,4 16,9 16,8 19,6 10 5 19 10 ZW 1017,3 7 2 0,0
16.08.2018 09:00:00 16,7 16,2 16,2 19,6 7 4 14 8 ZW 1017,2 5 0 0,0
16.08.2018 08:00:00 16,4 15,9 15,9 19,7 9 5 14 8 WZW 1017,5 34 0 0,2
16.08.2018 07:00:00 16,2 15,4 15,9 19,7 7 4 10 6 WZW 1017,9 3,8 0 0,0
16.08.2018 06:00:00 16,3 15,2 16,0 19,8 5 3 7 4 ZW 1017,6 33 0 0,0
16.08.2018 05:00:00 16,4 14,9 16,2 19,8 4 2 8 4 ZZW 1017,9 47 0 0,0
16.08.2018 04:00:00 16,6 14,8 16,2 19,9 6 4 10 6 W 1018,5 14 0 0,0
16.08.2018 03:00:00 16,9 14,7 16,7 19,9 10 5 15 8 W 1019,2 60 0 0,0
16.08.2018 02:00:00 17,0 14,6 16,8 20,0 6 3 11 6 WZW 1019,5 60 0 0,0
16.08.2018 01:00:00 17,1 14,6 16,9 20,0 3 2 8 4 WZW 1019,7 60 0 0,0
16.08.2018 00:00:00 17,3 14,8 17,0 20,0 5 3 10 6 WZW 1020,1 60 0 0,0
15.08.2018 23:00:00 17,5 14,9 17,2 20,0 0 0 17 9 N 1020,5 60 0 0,0
15.08.2018 22:00:00 17,7 15,0 17,3 20,0 5 3 12 6 W 1020,6 59 0 0,0
15.08.2018 21:00:00 18,1 15,5 18,0 20,0 6 4 16 9 WZW 1020,4 57 0 0,0
15.08.2018 20:00:00 18,5 15,4 18,6 20,0 9 5 15 8 WZW 1020,4 44 0 0,0
15.08.2018 19:00:00 18,8 15,5 19,3 19,9 9 5 14 8 W 1020,6 23 0 0,0
15.08.2018 18:00:00 19,2 15,7 19,8 19,9 10 5 16 8 W 1021,1 15 0 0,0
15.08.2018 17:00:00 19,5 16,2 20,4 19,8 12 7 17 9 WZW 1021,4 15 0 0,0
15.08.2018 16:00:00 19,8 16,2 20,3 19,7 12 6 20 11 WZW 1021,9 24 0 0,0
15.08.2018 15:00:00 20,1 15,5 20,7 19,7 11 6 19 10 W 1022,4 60 0 0,0
15.08.2018 14:00:00 19,6 16,2 20,5 19,6 9 5 19 11 W 1022,5 58 0 0,0
15.08.2018 13:00:00 19,4 16,2 20,5 19,6 11 6 17 9 W 1022,7 44 0 0,0
15.08.2018 12:00:00 19,1 16,5 18,9 19,6 10 5 16 9 ZW 1022,8 20 0 0,0
15.08.2018 11:00:00 18,2 16,5 18,4 19,6 9 5 14 8 W 1023,1 19 0 0,0
15.08.2018 10:00:00 17,6 17,0 17,6 19,7 7 4 11 6 W 1022,9 14 0 0,0
15.08.2018 09:00:00 17,0 16,7 16,6 19,7 5 3 11 6 W 1022,8 8 0 0,0
15.08.2018 08:00:00 16,7 16,4 16,4 19,8 3 2 9 5 ZW 1022,7 6 0 0,0
15.08.2018 07:00:00 16,6 16,3 16,4 19,8 4 2 10 5 W 1022,6 3,8 0 0,2
15.08.2018 06:00:00 16,5 16,0 16,1 19,9 5 3 11 6 W 1022,8 4,0 0 0,0
15.08.2018 05:00:00 16,3 15,8 16,0 19,9 7 4 10 5 WZW 1022,8 7 0 0,0
15.08.2018 04:00:00 16,1 15,5 16,0 20,0 6 3 8 5 W 1023,0 9 0 0,0
15.08.2018 03:00:00 16,1 15,5 16,0 20,1 7 4 11 6 W 1023,3 10 0 0,0
15.08.2018 02:00:00 16,1 15,5 15,7 20,1 6 3 9 5 W 1023,6 9 0 0,0
15.08.2018 01:00:00 15,9 15,1 15,0 20,2 6 4 14 7 NW 1023,7 16 0 0,0
15.08.2018 00:00:00 16,2 15,2 15,6 20,2 10 5 18 10 NNW 1023,7 14 0 0,0
14.08.2018 23:00:00 16,6 15,5 15,9 20,2 11 6 21 11 NW 1023,6 13 0 0,0
14.08.2018 22:00:00 17,8 16,0 17,5 20,2 13 7 20 11 NW 1023,3 39 0 0,0
14.08.2018 21:00:00 19,0 16,2 18,9 20,1 13 7 22 12 NW 1022,7 60 0 0,0
14.08.2018 20:00:00 19,4 16,4 19,7 20,0 17 9 25 13 NW 1022,5 60 2 0,0
14.08.2018 19:00:00 20,9 17,1 21,6 19,9 10 6 18 10 NW 1022,4 60 0 0,0
14.08.2018 18:00:00 20,9 16,9 21,6 19,8 11 6 25 13 WNW 1022,6 60 1 0,0
14.08.2018 17:00:00 20,7 17,1 21,6 19,7 18 10 25 13 WNW 1022,7 60 2 0,0
14.08.2018 16:00:00 21,4 17,0 23,1 19,6 18 10 26 14 NW 1022,4 56 10 0,0
14.08.2018 15:00:00 22,4 18,2 22,7 19,5 17 9 25 14 NW 1022,2 52 14 0,8
14.08.2018 14:00:00 21,0 17,8 19,5 19,5 13 7 23 13 NW 1021,9 52 6 0,0
14.08.2018 13:00:00 19,3 17,6 19,2 19,4 11 6 17 9 WNW 1021,9 3,1 1 0,0
14.08.2018 12:00:00 18,9 17,0 19,2 19,4 10 5 21 11 WNW 1021,7 51 0 0,0
14.08.2018 11:00:00 18,0 16,7 17,9 19,4 5 3 13 7 W 1021,4 19 0 0,0
14.08.2018 10:00:00 17,3 15,8 16,9 19,5 5 3 16 9 W 1021,1 18 3 0,0
14.08.2018 09:00:00 16,8 15,0 16,5 19,6 11 6 16 9 WNW 1020,7 57 2 0,0
14.08.2018 08:00:00 16,2 14,2 15,6 19,6 7 4 19 10 NW 1020,3 56 4 0,0
14.08.2018 07:00:00 16,4 13,5 15,9 19,7 12 6 28 15 NW 1019,7 60 0 0,0
14.08.2018 06:00:00 15,8 14,2 14,4 19,7 4 2 9 5 WNW 1019,1 58 0 0,0
14.08.2018 05:00:00 16,2 13,9 15,8 19,8 6 4 19 10 NW 1018,8 60 0 0,0
14.08.2018 04:00:00 16,4 14,2 16,1 19,9 13 7 17 9 NW 1018,6 58 0 0,0
14.08.2018 03:00:00 16,4 14,2 16,1 19,9 9 5 18 10 WNW 1018,5 60 0 0,0
14.08.2018 02:00:00 16,3 14,3 15,9 20,0 9 5 16 9 WNW 1018,3 59 0 0,0
14.08.2018 01:00:00 15,6 14,6 14,1 20,1 7 4 14 8 NW 1017,9 59 0 0,0
14.08.2018 00:00:00 14,9 13,8 13,3 20,1 5 3 12 7 WNW 1017,5 48 0 0,0
13.08.2018 23:00:00 15,6 14,0 15,0 20,1 11 6 25 13 NW 1017,0 55 0 0,0
13.08.2018 22:00:00 16,3 14,3 15,9 20,1 15 8 28 15 NW 1016,4 60 9 0,0
13.08.2018 21:00:00 17,8 14,3 17,5 20,0 17 9 26 14 WNW 1015,5 58 58 0,0
13.08.2018 20:00:00 19,1 14,4 20,6 19,9 19 11 35 19 NW 1014,8 60 60 0,0
13.08.2018 19:00:00 20,7 15,0 21,4 19,8 23 12 35 19 WNW 1014,2 60 57 0,0
13.08.2018 18:00:00 21,5 16,0 21,7 19,7 24 13 34 19 WNW 1013,9 60 49 0,0
13.08.2018 17:00:00 20,9 15,9 21,9 19,6 23 12 34 19 NW 1013,5 50 44 0,0

tt = temperatuur
td = dauwpunt
tt 5cm = temperatuur 5cm
tt -20cm = temperatuur -20cm
ff = windsnelheid
fx = windstoten
dd = windrichting
ppp = luchtdruk
vv = zicht
sd = Zonneschijnduur
rr = neerslag

Weerstations in de omgeving